Location: ?ernice
(48.8383°N, 14.3803°E)
Time: 19:34:48
(UTC+00:00)

Cosmos 2221 Rocket - Pass Details

Date: 23 May 2024
Orbit: 617 x 646 km, 82.5° (Epoch: 21 June)

Event Time Altitude Azimuth Distance (km) Brightness Sun altitude
Exits shadow 02:28:29 - 197° (SSW) 2,586 6.2 -6.4°
Reaches altitude 10° 02:29:51 10° 200° (SSW) 2,041 5.7 -6.2°
Maximum altitude 02:34:22 64° 282° (WNW) 716 3.8 -5.6°
Drops below altitude 10° 02:38:53 10° 4° (N) 2,049 6.9 -5.1°
Sets 02:41:10 0° 8° (N) 2,960 7.9 -4.8°
